Location: *
(40.9167°N, 9.5000°E)
Time: 21:16:32
(UTC+00:00)

MetOp-A - Pass Details

Date: 09 April 2020
Orbit: 819 x 821 km, 98.5° (Epoch: 31 May)

Event Time Altitude Azimuth Distance (km) Brightness Sun altitude
Exits shadow 19:13:33 16° 148° (SSE) 2,011 5.7 -14.8°
Maximum altitude 19:17:44 60° 73° (ENE) 939 4.2 -15.5°
Drops below altitude 10° 19:23:00 10° 354° (N) 2,426 7.0 -16.4°
Sets 19:25:23 0° 351° (N) 3,363 7.9 -16.8°
